Location: Erlenbrunn
(49.1717°N, 7.6142°E)
Time: 05:27:00
(UTC+00:00)

CSL-04 Rocket - Pass Details

Date: 25 November 2020
Orbit: 807 x 859 km, 98.9° (Epoch: 24 January)

Event Time Altitude Azimuth Distance (km) Brightness Sun altitude
Exits shadow 17:44:43 39° 90° (E) 1,216 4.0 -20.2°
Maximum altitude 17:45:35 42° 66° (ENE) 1,156 3.9 -20.3°
Drops below altitude 10° 17:50:35 10° 357° (N) 2,415 6.0 -21.1°
Sets 17:53:01 0° 350° (N) 3,346 6.8 -21.5°
